[[{"header":{"parameterUnit":"m.s-1","parameterCategory":1,"la1":30.2991,"la2":30.254,"lo1":-89.0895,"lo2":-89.0444,"dy":0.0017,"dx":0.0017,"nx":28,"ny":28,"refTime":"2024-08-08T21:00:00:Z","depth":0,"parameterNumber":2,"parameterNumberName":"U-component_of_WINDS"},"data":[0,0,0,0,0,0,0,0,0,0,0,0,0,0,0,0,0,0,0,0,0,0,0,0,0,0,0,0,0,0,0,0,0,0,0,0,0,0,0,0,0,0,0,0,0,0,0,0,0,0,0,0,0,0,0,0,0,0,-1.9019,-1.9019,0,-1.9,-1.8999,-1.8999,-1.8863,-1.886,-1.8856,-1.8853,-1.8839,-1.8842,-1.8844,0,0,0,0,0,0,0,0,0,0,0,0,0,-1.8943,-1.8945,-1.9019,-1.9019,-1.9019,-1.9,-1.8999,-1.8999,-1.8864,-1.886,-1.8856,-1.8852,-1.8838,-1.8841,-1.8845,0,0,0,0,0,0,0,0,0,0,0,0,0,-1.8955,-1.8945,-1.9019,-1.8949,-1.8942,-1.9,-1.8999,-1.8999,-1.8865,-1.886,-1.8854,-1.885,-1.8837,-1.8841,-1.8845,-1.8971,0,0,-1.8857,-1.8859,0,0,0,0,0,0,0,0,-1.8955,-1.8958,-1.8959,-1.8954,-1.8946,-1.8928,-1.8967,-1.899,-1.8866,-1.8894,-1.8853,-1.8847,-1.8873,-1.8874,-1.8881,-1.897,-1.8969,-1.8858,-1.886,-1.8862,-1.8863,0,0,0,0,0,0,0,-1.8954,-1.8958,-1.9011,-1.8959,-1.8952,-1.8919,-1.8915,-1.8971,-1.8912,-1.8891,-1.8881,-1.8881,-1.8869,-1.8878,-1.888,-1.8969,-1.8858,-1.8861,-1.8864,-1.8866,-1.9159,-1.9164,0,0,0,0,0,0,-1.8962,-1.8958,-1.9012,-1.9011,-1.8938,-1.8925,-1.892,-1.8939,-1.8911,-1.8902,-1.8885,-1.8874,-1.8873,-1.8876,-1.8879,-1.9024,-1.8862,-1.8866,-1.8868,-1.9154,-1.916,-1.9166,0,0,0,0,0,0,-1.8961,-1.8968,-1.9013,-1.8982,-1.8985,-1.8931,-1.8954,-1.8942,-1.8951,-1.8906,-1.8896,-1.8905,-1.8869,-1.8873,-1.8948,-1.9022,-1.8868,-1.8871,-1.9147,-1.9156,-1.9163,-1.9316,0,0,0,0,0,0,-1.8959,-1.8969,-1.9015,-1.8984,-1.8987,-1.9082,-1.8958,-1.8945,-1.8957,-1.8943,-1.8922,-1.8914,-1.8866,-1.8943,-1.8953,-1.9025,-1.8875,-1.9141,-1.9151,-1.916,-1.9304,-1.9328,-1.9349,0,0,0,0,0,-1.8957,-1.9061,-1.9018,-1.9026,-1.9044,-1.9086,-1.9088,-1.903,-1.8964,-1.9011,-1.8982,-1.8915,-1.9012,-1.8952,-1.8961,-1.9036,-1.9136,-1.9148,-1.916,-1.9294,-1.9323,-1.9348,0,0,0,0,0,0,-1.9105,-1.9055,-1.9008,-1.9104,-1.91,-1.9063,-1.9121,-1.9063,-1.9079,-1.9066,-1.8993,-1.8989,-1.9076,-1.9063,-1.8997,-1.9156,-1.9062,-1.9077,-1.9161,-1.9189,-1.921,-1.9212,-1.8878,0,0,0,0,0,-1.9148,-1.9185,-1.914,-1.9229,-1.9229,-1.9176,-1.9192,-1.9146,-1.9141,-1.9139,-1.9115,-1.9114,-1.9143,-1.9165,-1.919,-1.9301,-1.9295,-1.9357,-1.9379,-1.9398,-1.9412,-1.9469,-1.9496,-1.9205,-1.9205,-1.9205,0,0,-1.9239,-1.9216,-1.9244,-1.9258,-1.925,-1.9291,-1.9176,-1.9224,-1.9254,-1.9147,-1.9216,-1.9199,-1.9192,-1.9285,-1.9325,-1.9277,-1.949,-1.9413,-1.9428,-1.9432,-1.9484,-1.9512,-1.9536,-1.9213,-1.9212,-1.9211,0,0,-1.9425,-1.9411,-1.9483,-1.9477,-1.9464,-1.9427,-1.9445,-1.9417,-1.94,-1.9468,-1.9388,-1.9423,-1.9476,-1.9474,-1.948,-1.9664,-1.9602,-1.9674,-1.9791,-1.9848,-1.9871,-1.9891,-1.9957,-1.9981,-1.9687,-1.9688,-1.9688,0,-1.954,-1.9597,-1.9528,-1.9582,-1.959,-1.9492,-1.9565,-1.9562,-1.9561,-1.9569,-1.9515,-1.9579,-1.9567,-1.9658,-1.9703,-1.9711,-1.9729,-1.9677,-1.9873,-1.9892,-1.991,-1.9972,-1.9997,-1.9697,-1.9696,-1.9695,-1.9694,0,-1.9739,-1.978,-1.984,-1.9837,-1.9852,-1.9916,-1.9858,-1.9882,-1.9834,-1.9804,-1.9874,-1.9856,-1.9875,-1.9893,-1.9849,-1.9979,-1.9949,-1.9885,-1.979,-1.9947,-2.0004,-2.0028,-1.9709,-1.9706,-1.9703,-1.9701,0,0,-2.002,-1.9977,-2.0,-1.9997,-1.9976,-2.0007,-2.0065,-2.0082,-2.0104,-2.0105,-2.0154,-2.02,-2.0139,-2.0146,-2.01,-2.015,-2.0297,-2.0079,-2.0078,-2.0121,-2.0439,-2.0488,-2.0516,-2.0255,-2.0259,-2.0263,-2.044,0,-2.0199,-2.0295,-2.0234,-2.0341,-2.0378,-2.0283,-2.0334,-2.0328,-2.03,-2.0328,-2.0298,-2.0332,-2.025,-2.0253,-2.0298,-2.027,-2.036,-2.0256,-2.0301,-2.0303,-2.0306,-2.0546,-2.0598,-2.0766,-2.0461,-2.0465,-2.0468,0,-2.0422,-2.043,-2.0539,-2.0509,-2.0522,-2.0569,-2.0578,-2.0606,-2.0596,-2.0573,-2.058,-2.0521,-2.0577,-2.0482,-2.0559,-2.049,-2.0504,-2.0493,-2.0498,-2.0501,-2.0396,-2.0557,-2.0818,-2.0844,-2.0502,-2.0499,-2.0497,0,-2.0617,-2.0655,-2.0725,-2.0725,-2.0692,-2.0727,-2.0714,-2.0699,-2.0713,-2.0722,-2.073,-2.0746,-2.0756,-2.077,-2.0718,-2.0653,-2.0802,-2.0703,-2.0785,-2.0787,-2.0822,-2.0821,-2.1091,-2.0831,-2.083,-2.083,-2.0829,0,-2.0824,-2.0895,-2.0812,-2.0855,-2.0932,-2.0861,-2.0939,-2.0917,-2.0904,-2.0942,-2.0862,-2.09,-2.0828,-2.0859,-2.0818,-2.0888,-2.0893,-2.0876,-2.0865,-2.0884,-2.0886,-2.0894,-2.0881,-2.0836,-2.0835,-2.0833,-2.0832,0,-2.1056,-2.1003,-2.1073,-2.1033,-2.1025,-2.1083,-2.105,-2.1089,-2.1055,-2.1104,-2.1112,-2.106,-2.1091,-2.104,-2.1067,-2.1039,-2.1136,-2.1107,-2.114,-2.1131,-2.1217,-2.121,-2.1502,-2.1536,-2.1254,-2.1256,-2.1259,0,-2.1192,-2.1244,-2.1209,-2.1227,-2.1219,-2.125,-2.1262,-2.1195,-2.1211,-2.1203,-2.1243,-2.1268,-2.1284,-2.134,-2.1305,-2.1325,-2.1296,-2.1397,-2.1298,-2.1316,-2.1298,-2.1296,-2.1301,-2.1417,-2.1421,-2.1424,-2.1426,0,-2.144,-2.141,-2.143,-2.144,-2.1457,-2.1462,-2.1463,-2.1483,-2.1411,-2.1434,-2.1464,-2.1477,-2.1502,-2.1528,-2.1539,-2.1528,-2.1466,-2.1457,-2.1477,-2.1498,-2.1514,-2.1507,-2.1195,-2.1451,-2.1448,-2.1446,-2.1445,-2.1444,-2.1628,-2.1669,-2.165,-2.1675,-2.1667,-2.1668,-2.1702,-2.1671,-2.1694,-2.1708,-2.1667,-2.1707,-2.1695,-2.1702,-2.1698,-2.1729,-2.1685,-2.1714,-2.1722,-2.173,-2.1744,-2.1509,-2.1731,-2.173,-2.1729,-2.1729,-2.1728,0,-2.1872,-2.1854,-2.1877,-2.1878,-2.1897,-2.1834,-2.183,-2.1851,-2.1887,-2.1879,-2.1896,-2.1931,-2.1955,-2.1921,-2.1939,-2.1971,-2.1943,-2.1978,-2.1976,-2.1974,-2.1782,-2.1763,-2.2001,-2.2001,-2.2,-2.2,-2.2,-2.2,-2.2001,-2.2067,-2.2035,-2.2096,-2.2078,-2.2114,-2.2118,-2.2119,-2.2112,-2.2154,-2.2172,-2.2149,-2.2131,-2.2147,-2.2167,-2.2156,-2.2167,-2.2213,-2.2193,-2.2015,-2.1988,-2.1963,-2.1944,-2.2216,-2.2216,-2.2382,-2.2384,-2.2385]},{"header":{"parameterUnit":"m.s-1","parameterCategory":1,"la1":30.2991,"la2":30.254,"lo1":-89.0895,"lo2":-89.0444,"dy":0.0017,"dx":0.0017,"nx":28,"ny":28,"refTime":"2024-08-08T21:00:00:Z","depth":0,"parameterNumber":3,"parameterNumberName":"V-component_of_WINDS"},"data":[0,0,0,0,0,0,0,0,0,0,0,0,0,0,0,0,0,0,0,0,0,0,0,0,0,0,0,0,0,0,0,0,0,0,0,0,0,0,0,0,0,0,0,0,0,0,0,0,0,0,0,0,0,0,0,0,0,0,-3.4221,-3.4221,0,-3.4231,-3.4231,-3.4231,-3.4187,-3.4186,-3.4185,-3.4183,-3.4193,-3.4194,-3.4196,0,0,0,0,0,0,0,0,0,0,0,0,0,-3.4163,-3.4165,-3.4221,-3.4221,-3.4221,-3.4231,-3.4231,-3.4231,-3.4187,-3.4186,-3.4184,-3.4183,-3.4192,-3.4194,-3.4196,0,0,0,0,0,0,0,0,0,0,0,0,0,-3.4182,-3.4165,-3.4221,-3.4201,-3.4199,-3.4231,-3.4231,-3.4231,-3.4188,-3.4186,-3.4184,-3.4182,-3.4192,-3.4194,-3.4196,-3.4248,0,0,-3.4203,-3.4204,0,0,0,0,0,0,0,0,-3.4181,-3.4184,-3.4204,-3.4202,-3.42,-3.4206,-3.4214,-3.4236,-3.4188,-3.4192,-3.4183,-3.4181,-3.4199,-3.42,-3.4206,-3.4248,-3.4248,-3.4203,-3.4204,-3.4205,-3.4206,0,0,0,0,0,0,0,-3.418,-3.4184,-3.4225,-3.4204,-3.4202,-3.419,-3.4191,-3.4218,-3.4206,-3.4191,-3.4188,-3.419,-3.4197,-3.4204,-3.4206,-3.4249,-3.4203,-3.4205,-3.4206,-3.4207,-3.433,-3.4332,0,0,0,0,0,0,-3.4181,-3.4183,-3.4224,-3.4225,-3.4186,-3.4193,-3.4194,-3.4206,-3.4205,-3.4204,-3.4192,-3.4188,-3.4201,-3.4204,-3.4206,-3.4264,-3.4205,-3.4207,-3.4208,-3.4329,-3.4331,-3.4333,0,0,0,0,0,0,-3.418,-3.4186,-3.4224,-3.4203,-3.4207,-3.4196,-3.421,-3.4207,-3.4214,-3.4206,-3.4203,-3.4201,-3.42,-3.4203,-3.4237,-3.4264,-3.4208,-3.421,-3.4326,-3.4329,-3.4332,-3.4382,0,0,0,0,0,0,-3.4179,-3.4185,-3.4205,-3.4204,-3.4208,-3.4255,-3.4212,-3.4209,-3.4218,-3.4213,-3.4214,-3.4212,-3.4199,-3.4234,-3.4239,-3.4266,-3.4212,-3.4324,-3.4328,-3.4331,-3.4378,-3.4387,-3.4394,0,0,0,0,0,-3.4177,-3.422,-3.4207,-3.4212,-3.4233,-3.4257,-3.426,-3.4244,-3.422,-3.4239,-3.4234,-3.4212,-3.4261,-3.4238,-3.4243,-3.4271,-3.4322,-3.4326,-3.4331,-3.4375,-3.4385,-3.4394,0,0,0,0,0,0,-3.4225,-3.4219,-3.4205,-3.4248,-3.4253,-3.425,-3.4274,-3.4256,-3.4268,-3.4263,-3.4242,-3.4243,-3.428,-3.4279,-3.4254,-3.432,-3.4287,-3.4293,-3.4319,-3.4328,-3.4336,-3.4335,-3.4213,0,0,0,0,0,-3.4241,-3.4261,-3.4255,-3.4294,-3.4297,-3.4285,-3.4295,-3.4282,-3.4287,-3.4289,-3.4286,-3.4291,-3.4307,-3.4318,-3.4333,-3.4379,-3.4377,-3.44,-3.4408,-3.4415,-3.4419,-3.4441,-3.4451,-3.4348,-3.4348,-3.4348,0,0,-3.4274,-3.4273,-3.4287,-3.4303,-3.4306,-3.4326,-3.4287,-3.4311,-3.4326,-3.4292,-3.4323,-3.4321,-3.4325,-3.4365,-3.4382,-3.4366,-3.4448,-3.442,-3.4426,-3.4427,-3.4447,-3.4457,-3.4465,-3.4351,-3.435,-3.435,0,0,-3.4343,-3.4345,-3.4377,-3.438,-3.4384,-3.4375,-3.4383,-3.4382,-3.4379,-3.441,-3.4384,-3.4401,-3.443,-3.4433,-3.4439,-3.4508,-3.4487,-3.4513,-3.4554,-3.4576,-3.4584,-3.4591,-3.4613,-3.4622,-3.4519,-3.4519,-3.4519,0,-3.4383,-3.4413,-3.4395,-3.442,-3.4427,-3.4398,-3.4428,-3.4432,-3.4441,-3.4446,-3.4428,-3.4462,-3.4463,-3.4502,-3.4518,-3.4525,-3.4531,-3.4512,-3.4584,-3.4591,-3.4597,-3.4618,-3.4627,-3.4522,-3.4521,-3.4521,-3.4521,0,-3.446,-3.4482,-3.4506,-3.4514,-3.4525,-3.4553,-3.4539,-3.4551,-3.4537,-3.453,-3.4561,-3.4561,-3.4574,-3.4583,-3.457,-3.4619,-3.4609,-3.4588,-3.4554,-3.461,-3.463,-3.4638,-3.4526,-3.4525,-3.4524,-3.4523,0,0,-3.456,-3.4557,-3.4567,-3.4569,-3.457,-3.4586,-3.4612,-3.4624,-3.4634,-3.4642,-3.4661,-3.4686,-3.4666,-3.4672,-3.466,-3.4679,-3.4731,-3.4655,-3.4655,-3.4667,-3.4782,-3.4796,-3.4806,-3.4718,-3.4719,-3.472,-3.4781,0,-3.4626,-3.467,-3.4654,-3.4699,-3.4717,-3.4688,-3.471,-3.4713,-3.4708,-3.4722,-3.4715,-3.4732,-3.4706,-3.4709,-3.4727,-3.4721,-3.4753,-3.4716,-3.4735,-3.4735,-3.4732,-3.4817,-3.4832,-3.489,-3.4789,-3.479,-3.4791,0,-3.4709,-3.4718,-3.4764,-3.476,-3.4767,-3.4788,-3.4796,-3.4811,-3.4813,-3.4807,-3.4814,-3.4796,-3.4821,-3.4788,-3.482,-3.4796,-3.4802,-3.48,-3.4802,-3.4802,-3.4765,-3.4816,-3.4908,-3.4916,-3.4803,-3.4802,-3.4802,0,-3.4774,-3.4798,-3.4828,-3.4831,-3.4828,-3.4843,-3.4842,-3.4843,-3.485,-3.4859,-3.4863,-3.4874,-3.488,-3.4889,-3.4874,-3.4852,-3.4908,-3.4875,-3.4902,-3.4903,-3.4914,-3.4913,-3.5005,-3.4922,-3.4922,-3.4922,-3.4921,0,-3.4848,-3.4877,-3.4856,-3.4875,-3.4905,-3.4887,-3.4918,-3.4914,-3.4915,-3.4931,-3.4908,-3.4924,-3.4905,-3.4919,-3.4908,-3.4935,-3.4938,-3.4933,-3.493,-3.4934,-3.4935,-3.4937,-3.4932,-3.4924,-3.4923,-3.4923,-3.4923,0,-3.4925,-3.4913,-3.4943,-3.4938,-3.4937,-3.496,-3.4955,-3.4971,-3.4963,-3.4984,-3.4988,-3.4976,-3.4991,-3.4978,-3.4993,-3.4985,-3.502,-3.5012,-3.5019,-3.5016,-3.5044,-3.504,-3.5139,-3.515,-3.5062,-3.5063,-3.5064,0,-3.4972,-3.4993,-3.4989,-3.4998,-3.4999,-3.5014,-3.5021,-3.5004,-3.5013,-3.5016,-3.5031,-3.5044,-3.5053,-3.5079,-3.5071,-3.5082,-3.5072,-3.5106,-3.5074,-3.5077,-3.507,-3.5068,-3.5069,-3.5112,-3.5113,-3.5114,-3.5115,0,-3.5056,-3.5048,-3.506,-3.5069,-3.5078,-3.5084,-3.5089,-3.5098,-3.508,-3.509,-3.5105,-3.5112,-3.5126,-3.5139,-3.5147,-3.5146,-3.5127,-3.5125,-3.5132,-3.5135,-3.5137,-3.5134,-3.5035,-3.5123,-3.5122,-3.5121,-3.5121,-3.512,-3.5118,-3.5134,-3.5133,-3.5146,-3.5147,-3.5152,-3.5166,-3.516,-3.5171,-3.5181,-3.5171,-3.5188,-3.5188,-3.5197,-3.5198,-3.5211,-3.5197,-3.5207,-3.5209,-3.5211,-3.5214,-3.5137,-3.5213,-3.5213,-3.5212,-3.5212,-3.5212,0,-3.5198,-3.5196,-3.5208,-3.5214,-3.5224,-3.5205,-3.5209,-3.5218,-3.5234,-3.5236,-3.5245,-3.526,-3.5272,-3.5265,-3.5275,-3.5287,-3.5278,-3.529,-3.5287,-3.5287,-3.5227,-3.5219,-3.5296,-3.5296,-3.5296,-3.5296,-3.5296,-3.5296,-3.524,-3.5266,-3.5259,-3.5285,-3.5282,-3.5298,-3.5302,-3.5305,-3.5306,-3.5325,-3.5334,-3.5329,-3.5327,-3.5337,-3.5346,-3.5344,-3.5348,-3.5362,-3.5356,-3.53,-3.5292,-3.5284,-3.5276,-3.5363,-3.5364,-3.5415,-3.5415,-3.5415]}]]